Location: Unspecified
(43.4680°N, 87.1740°E)
Time: 22:55:23
(UTC+00:00)

Nadezhda 1 Rocket - Pass Details

Date: 17 January 2020
Orbit: 942 x 1005 km, 83.0° (Epoch: 22 February)

Event Time Altitude Azimuth Distance (km) Brightness Sun altitude
Rises 23:38:47 0° 193° (SSW) 3,610 6.9 -21.6°
Reaches altitude 10° 23:41:17 10° 195° (SSW) 2,663 6.2 -21.2°
Maximum altitude 23:47:20 71° 279° (W) 998 3.8 -20.1°
Drops below altitude 10° 23:53:25 10° 4° (N) 2,669 6.2 -19.0°
Sets 23:55:56 0° 6° (N) 3,620 6.9 -18.6°
